[[{"header":{"parameterUnit":"m.s-1","parameterCategory":1,"la1":30.2991,"la2":30.254,"lo1":-89.0895,"lo2":-89.0444,"dy":0.0017,"dx":0.0017,"nx":28,"ny":28,"refTime":"2023-08-28T09:00:00:Z","depth":0,"parameterNumber":2,"parameterNumberName":"U-component_of_WINDS"},"data":[0,0,0,0,0,0,0,0,0,0,0,0,0,0,0,0,0,0,0,0,0,0,0,0,0,0,0,0,0,0,0,0,0,0,0,0,0,0,0,0,0,0,0,0,0,0,0,0,0,0,0,0,0,0,0,0,0,0,1.2775,1.2776,0,1.2868,1.2869,1.287,1.2853,1.2852,1.285,1.2848,1.2942,1.2946,1.295,0,0,0,0,0,0,0,0,0,0,0,0,0,1.2583,1.2587,1.2775,1.2776,1.2777,1.2867,1.2869,1.287,1.2853,1.2852,1.285,1.2848,1.2941,1.2946,1.295,0,0,0,0,0,0,0,0,0,0,0,0,0,1.267,1.2588,1.2775,1.278,1.2781,1.2867,1.2869,1.287,1.2854,1.2851,1.2849,1.2847,1.2939,1.2945,1.2951,1.3037,0,0,1.297,1.2972,0,0,0,0,0,0,0,0,1.2665,1.2677,1.2778,1.278,1.2781,1.2846,1.2835,1.2926,1.2855,1.2826,1.2848,1.2846,1.2912,1.292,1.2943,1.3042,1.3046,1.297,1.2974,1.2976,1.2978,0,0,0,0,0,0,0,1.2659,1.2673,1.2811,1.2779,1.2782,1.2777,1.2787,1.2853,1.2882,1.2829,1.2828,1.2839,1.2913,1.2937,1.2945,1.3047,1.297,1.2975,1.2979,1.2981,1.3221,1.3223,0,0,0,0,0,0,1.2652,1.2668,1.2809,1.2814,1.2716,1.2783,1.2794,1.2828,1.2881,1.2887,1.2841,1.2838,1.2928,1.2938,1.2948,1.3052,1.2976,1.2982,1.2985,1.3218,1.3221,1.3224,0,0,0,0,0,0,1.2648,1.2664,1.2805,1.2741,1.2759,1.2789,1.2827,1.2831,1.2856,1.289,1.2895,1.2861,1.2927,1.294,1.3015,1.3055,1.2985,1.299,1.3215,1.3219,1.3223,1.3261,0,0,0,0,0,0,1.2642,1.2663,1.2696,1.2742,1.2762,1.2871,1.283,1.2835,1.2866,1.2863,1.291,1.2916,1.2926,1.3006,1.3021,1.3062,1.2995,1.3211,1.3217,1.3222,1.3256,1.3266,1.3274,0,0,0,0,0,1.2635,1.2703,1.2698,1.2715,1.2804,1.2873,1.2884,1.2895,1.2869,1.2903,1.2925,1.2914,1.3049,1.3014,1.3031,1.3074,1.3209,1.3215,1.3221,1.3252,1.3264,1.3274,0,0,0,0,0,0,1.266,1.2709,1.2704,1.2788,1.2827,1.287,1.2912,1.2907,1.2953,1.2948,1.2959,1.297,1.3046,1.3068,1.3029,1.316,1.3125,1.3135,1.3143,1.3155,1.3163,1.3156,1.3,0,0,0,0,0,1.2676,1.2728,1.2768,1.2838,1.2858,1.2882,1.2912,1.2917,1.2957,1.2973,1.3001,1.304,1.3091,1.3124,1.3173,1.326,1.3269,1.3298,1.3307,1.3314,1.3322,1.3369,1.3382,1.3245,1.3245,1.3244,0,0,1.2708,1.2741,1.2773,1.2844,1.2874,1.2928,1.2896,1.2953,1.2993,1.2982,1.3054,1.3076,1.3121,1.3202,1.3239,1.3222,1.3362,1.3322,1.3327,1.3331,1.3377,1.339,1.3401,1.3249,1.3248,1.3247,0,0,1.2794,1.2825,1.2887,1.2918,1.2964,1.298,1.2995,1.304,1.3054,1.3127,1.312,1.3167,1.3255,1.3286,1.3314,1.3413,1.3404,1.3428,1.3475,1.3521,1.3531,1.3541,1.3576,1.3588,1.3437,1.3437,1.3437,0,1.2828,1.2909,1.2919,1.2978,1.3009,1.3002,1.3065,1.3095,1.3155,1.3176,1.3157,1.3267,1.3296,1.3385,1.3409,1.3432,1.3449,1.3423,1.3529,1.3539,1.3548,1.3581,1.3594,1.3439,1.3439,1.3439,1.3438,0,1.2948,1.3004,1.3048,1.3107,1.3143,1.3204,1.3223,1.3259,1.3261,1.3279,1.3353,1.3389,1.3444,1.3466,1.3468,1.3555,1.3543,1.3527,1.3491,1.3563,1.3595,1.3607,1.3443,1.3442,1.3441,1.3441,0,0,1.3051,1.3115,1.3131,1.3158,1.3209,1.3252,1.3313,1.3367,1.3397,1.3439,1.349,1.3564,1.3549,1.3581,1.3587,1.3627,1.3702,1.3606,1.3607,1.3622,1.38,1.3811,1.3825,1.3698,1.37,1.3702,1.3796,0,1.3141,1.3248,1.3259,1.3354,1.3406,1.3401,1.3453,1.349,1.3508,1.3554,1.3574,1.3627,1.3604,1.3622,1.3662,1.3685,1.3738,1.3678,1.3744,1.3746,1.3732,1.3842,1.3854,1.3941,1.3808,1.381,1.3811,0,1.326,1.3306,1.3406,1.345,1.3472,1.3519,1.357,1.3615,1.3657,1.3667,1.3703,1.3703,1.3765,1.3728,1.3813,1.3772,1.38,1.3815,1.3819,1.3824,1.3782,1.385,1.3969,1.3981,1.3831,1.3829,1.3828,0,1.3324,1.3411,1.3482,1.3505,1.3558,1.3591,1.3615,1.3655,1.3687,1.3732,1.3753,1.3804,1.3832,1.3872,1.3887,1.3859,1.3971,1.3935,1.3981,1.398,1.4004,1.4002,1.4128,1.4023,1.4023,1.4023,1.4022,0,1.3423,1.3484,1.3512,1.3555,1.3624,1.3637,1.3704,1.3726,1.3762,1.3809,1.3808,1.3852,1.3869,1.3917,1.3929,1.3997,1.401,1.402,1.4022,1.4019,1.4018,1.4037,1.403,1.4026,1.4025,1.4025,1.4024,0,1.3506,1.3527,1.3604,1.3648,1.3661,1.3709,1.3747,1.3789,1.3808,1.3868,1.3883,1.3911,1.3967,1.3985,1.4053,1.4061,1.414,1.4138,1.4126,1.4126,1.417,1.4165,1.4312,1.4331,1.4215,1.4216,1.4217,0,1.3566,1.3614,1.3664,1.3696,1.3721,1.3772,1.3806,1.3821,1.3855,1.3907,1.3942,1.3998,1.4043,1.4132,1.4158,1.421,1.4208,1.4256,1.4215,1.4211,1.4207,1.4204,1.4208,1.4263,1.4264,1.4265,1.4266,0,1.3672,1.3681,1.3729,1.3781,1.3821,1.3862,1.3903,1.3929,1.395,1.3989,1.4046,1.4081,1.415,1.4205,1.4257,1.4281,1.4277,1.4278,1.4291,1.4289,1.4279,1.4284,1.4145,1.4275,1.4274,1.4273,1.4273,1.4272,1.3745,1.3787,1.3829,1.3883,1.3915,1.3952,1.3994,1.4018,1.4066,1.4123,1.413,1.4191,1.4232,1.4302,1.4329,1.4377,1.4363,1.4382,1.4387,1.4391,1.4394,1.4273,1.4386,1.4386,1.4386,1.4386,1.4386,0,1.385,1.3877,1.3927,1.3983,1.4026,1.4019,1.4063,1.4099,1.4153,1.4192,1.4236,1.4302,1.4355,1.4386,1.4439,1.4472,1.4471,1.4485,1.4482,1.4488,1.4404,1.4386,1.4485,1.4485,1.4485,1.4485,1.4485,1.4485,1.391,1.398,1.3993,1.4079,1.4105,1.4166,1.4191,1.4226,1.4257,1.4331,1.4375,1.4395,1.4431,1.4487,1.4535,1.4543,1.4562,1.4577,1.4583,1.4504,1.4494,1.4484,1.4468,1.4582,1.4582,1.4663,1.4664,1.4665]},{"header":{"parameterUnit":"m.s-1","parameterCategory":1,"la1":30.2991,"la2":30.254,"lo1":-89.0895,"lo2":-89.0444,"dy":0.0017,"dx":0.0017,"nx":28,"ny":28,"refTime":"2023-08-28T09:00:00:Z","depth":0,"parameterNumber":3,"parameterNumberName":"V-component_of_WINDS"},"data":[0,0,0,0,0,0,0,0,0,0,0,0,0,0,0,0,0,0,0,0,0,0,0,0,0,0,0,0,0,0,0,0,0,0,0,0,0,0,0,0,0,0,0,0,0,0,0,0,0,0,0,0,0,0,0,0,0,0,0.9864,0.9867,0,1.0129,1.0132,1.0135,1.0165,1.0162,1.016,1.0157,1.0435,1.0445,1.0455,0,0,0,0,0,0,0,0,0,0,0,0,0,0.9387,0.9396,0.9863,0.9867,0.987,1.0129,1.0132,1.0136,1.0166,1.0162,1.0159,1.0156,1.0432,1.0444,1.0456,0,0,0,0,0,0,0,0,0,0,0,0,0,0.9617,0.9398,0.9863,0.9916,0.9923,1.0128,1.0133,1.0137,1.0166,1.0162,1.0158,1.0154,1.0428,1.0443,1.0457,1.063,0,0,1.0503,1.0509,0,0,0,0,0,0,0,0,0.9604,0.9635,0.9905,0.9913,0.9921,1.011,1.0066,1.0302,1.0167,1.0074,1.0157,1.0152,1.0331,1.0353,1.0412,1.0643,1.0655,1.0504,1.0513,1.052,1.0524,0,0,0,0,0,0,0,0.9588,0.9624,0.9969,0.9909,0.9919,0.9928,0.9956,1.0111,1.0222,1.0082,1.0085,1.0115,1.0335,1.0398,1.0419,1.0659,1.0504,1.0517,1.0526,1.0532,1.1043,1.1048,0,0,0,0,0,0,0.9562,0.961,0.996,0.9977,0.9749,0.994,0.9971,1.0053,1.022,1.0242,1.0119,1.0116,1.0374,1.0402,1.0429,1.0642,1.0519,1.0533,1.0542,1.1039,1.1044,1.1049,0,0,0,0,0,0,0.9551,0.9593,0.995,0.9794,0.984,0.9952,1.0044,1.0061,1.0124,1.0248,1.0268,1.0163,1.0372,1.0408,1.0579,1.0652,1.054,1.0554,1.1033,1.1041,1.1047,1.1069,0,0,0,0,0,0,0.9538,0.9589,0.9654,0.9796,0.9849,1.0094,1.0049,1.0069,1.0149,1.0148,1.0295,1.0315,1.0372,1.0557,1.0594,1.067,1.0565,1.1027,1.1036,1.1045,1.1062,1.1076,1.1087,0,0,0,0,0,0.952,0.9652,0.9658,0.97,0.9933,1.0098,1.0129,1.019,1.0155,1.0222,1.0302,1.0311,1.0637,1.0574,1.0616,1.0698,1.1023,1.1034,1.1044,1.1057,1.1073,1.1087,0,0,0,0,0,0,0.9519,0.9671,0.968,0.986,0.9965,1.0103,1.019,1.0205,1.0325,1.0319,1.0391,1.0424,1.0592,1.0662,1.0589,1.0873,1.0827,1.0846,1.0822,1.0839,1.0851,1.0832,1.0578,0,0,0,0,0,0.9539,0.9659,0.9786,0.9933,0.9985,1.0078,1.0153,1.019,1.0303,1.0349,1.0441,1.0552,1.068,1.0763,1.0887,1.1071,1.1104,1.1148,1.1161,1.1171,1.1188,1.129,1.1312,1.1084,1.1084,1.1084,0,0,0.9584,0.9681,0.9753,0.9935,1.0022,1.0146,1.0116,1.0249,1.0342,1.037,1.0537,1.0608,1.0737,1.0915,1.0998,1.0978,1.1257,1.1184,1.1191,1.1203,1.1303,1.1325,1.1344,1.1091,1.109,1.1089,0,0,0.9728,0.9813,0.9945,1.0031,1.016,1.0221,1.0252,1.0387,1.0435,1.0602,1.0625,1.0738,1.0956,1.1047,1.1122,1.1297,1.131,1.1335,1.1402,1.1502,1.152,1.1536,1.16,1.1622,1.1351,1.1351,1.1351,0,0.9767,0.9953,1.0011,1.0143,1.0223,1.025,1.0384,1.0466,1.0631,1.0686,1.066,1.0934,1.1023,1.1222,1.1265,1.1324,1.1363,1.1321,1.1512,1.1529,1.1545,1.1607,1.163,1.1353,1.1353,1.1353,1.1353,0,0.9996,1.0124,1.0215,1.0371,1.0461,1.0593,1.0672,1.0756,1.0785,1.0848,1.1019,1.1125,1.1271,1.1321,1.1351,1.1525,1.1509,1.1497,1.1452,1.1568,1.1627,1.1651,1.1357,1.1356,1.1355,1.1355,0,0,1.0151,1.0333,1.0366,1.0437,1.058,1.0682,1.0815,1.0956,1.1027,1.1139,1.1254,1.1436,1.1425,1.151,1.155,1.1637,1.177,1.1615,1.1619,1.1641,1.1969,1.1979,1.2005,1.1778,1.1782,1.1786,1.1959,0,1.0313,1.055,1.0604,1.0808,1.0928,1.0954,1.1071,1.1172,1.1234,1.1346,1.1415,1.1544,1.1519,1.157,1.1657,1.1735,1.1837,1.1723,1.1888,1.1893,1.1857,1.2036,1.2048,1.2206,1.1982,1.1986,1.1989,0,1.0535,1.0648,1.0864,1.099,1.1043,1.1146,1.1279,1.1385,1.15,1.1539,1.1632,1.1663,1.1804,1.1749,1.1945,1.1866,1.1936,1.1985,1.1992,1.2013,1.195,1.2063,1.2258,1.2282,1.2026,1.2023,1.202,0,1.0628,1.0835,1.099,1.105,1.1201,1.1273,1.134,1.1451,1.1531,1.1647,1.17,1.1832,1.1905,1.2006,1.2072,1.2026,1.2263,1.2214,1.2301,1.23,1.2353,1.2349,1.2564,1.2394,1.2393,1.2393,1.2392,0,1.0805,1.0936,1.1034,1.113,1.1278,1.1339,1.1484,1.1551,1.1649,1.176,1.179,1.1893,1.1972,1.2087,1.2139,1.2294,1.2327,1.2363,1.2376,1.2362,1.2358,1.2412,1.2403,1.2399,1.2398,1.2397,1.2396,0,1.0935,1.1006,1.1177,1.1305,1.134,1.1443,1.1554,1.1648,1.1709,1.1849,1.1885,1.1982,1.2118,1.2192,1.2364,1.2399,1.2573,1.2579,1.2533,1.254,1.2623,1.2615,1.2882,1.2921,1.2722,1.2724,1.2726,0,1.1045,1.1146,1.1283,1.1358,1.1425,1.1546,1.1627,1.169,1.1774,1.1912,1.199,1.2127,1.2241,1.2457,1.2544,1.2675,1.2686,1.277,1.2706,1.2689,1.269,1.2684,1.2695,1.2782,1.2784,1.2786,1.2787,0,1.1233,1.1262,1.1377,1.1503,1.1599,1.1702,1.1805,1.1865,1.1946,1.2038,1.2176,1.2264,1.2437,1.2574,1.2711,1.2781,1.2799,1.2805,1.2833,1.2822,1.2792,1.2811,1.2566,1.28,1.2799,1.2798,1.2797,1.2797,1.1358,1.1449,1.1559,1.1686,1.1769,1.1863,1.1958,1.2029,1.2145,1.229,1.232,1.2466,1.2578,1.2764,1.2837,1.2954,1.2938,1.2977,1.2988,1.2997,1.3001,1.277,1.2979,1.2978,1.2978,1.2978,1.2978,0,1.1549,1.162,1.1735,1.1877,1.1976,1.1979,1.2093,1.2177,1.2304,1.2406,1.2515,1.2674,1.2805,1.2901,1.3035,1.311,1.3121,1.3144,1.314,1.3156,1.3007,1.2971,1.3132,1.3132,1.3132,1.3132,1.3132,1.3132,1.166,1.1814,1.1856,1.2051,1.2122,1.2263,1.2328,1.2415,1.2497,1.2671,1.278,1.284,1.294,1.3081,1.3202,1.3227,1.3276,1.3298,1.3324,1.3183,1.3167,1.3151,1.3118,1.3307,1.3307,1.3464,1.3465,1.3466]}]]